When you browse on this site, cookies collect data to enhance your experience and personalize the content and advertising you see.
Visit our Privacy Policy to learn more. By continuing to use the site, you agree to this use of cookies and data.
  • In Deutschland
  • Länderverzeichnis
  • Für 7 Tage
  • Wassertemperatur
  • Wetterkarte
  • Widgets
  • user-avatar
    Anmelden

    Stündliche Wetter Punta Gorda

    Heute, 22 September, Sonntag

    Zeit Temperatur Niederschläge Wind Luftdruck Luftfeuchtigkeit
    00:00 +25°C° 0.5 mm 1 m/S 759 mmHg 96%
    01:00 +25°C° 0.5 mm 1 m/S 758 mmHg 96%
    02:00 +25°C° 0.5 mm 1 m/S 758 mmHg 97%
    03:00 +25°C° 0.5 mm 2 m/S 758 mmHg 97%
    04:00 +25°C° 0.1 mm 2 m/S 758 mmHg 97%
    05:00 +25°C° 0.1 mm 2 m/S 758 mmHg 97%
    06:00 +24°C° 0.1 mm 2 m/S 758 mmHg 97%
    07:00 +26°C° 0 mm 2 m/S 759 mmHg 89%
    08:00 +28°C° 0 mm 2 m/S 759 mmHg 81%
    09:00 +30°C° 0 mm 2 m/S 760 mmHg 72%
    10:00 +32°C° 0 mm 2 m/S 759 mmHg 64%
    11:00 +34°C° 0 mm 1 m/S 758 mmHg 55%
    12:00 +36°C° 0 mm 1 m/S 758 mmHg 47%
    13:00 +37°C° 0.1 mm 2 m/S 757 mmHg 51%
    14:00 +36°C° 0.1 mm 2 m/S 756 mmHg 54%
    15:00 +35°C° 0.1 mm 2 m/S 756 mmHg 58%
    16:00 +33°C° 0.1 mm 3 m/S 756 mmHg 67%
    17:00 +30°C° 0.1 mm 3 m/S 756 mmHg 75%
    18:00 +29°C° 0.1 mm 3 m/S 757 mmHg 84%
    19:00 +28°C° 0.5 mm 3 m/S 757 mmHg 87%
    20:00 +27°C° 0.5 mm 2 m/S 758 mmHg 91%
    21:00 +26°C° 0.5 mm 2 m/S 759 mmHg 94%
    22:00 +26°C° 0.9 mm 1 m/S 759 mmHg 95%
    23:00 +26°C° 0.9 mm 1 m/S 759 mmHg 96%

    Morgen, 23 September, Montag

    Zeit Temperatur Niederschläge Wind Luftdruck Luftfeuchtigkeit
    00:00 +25°C° 0.9 mm 1 m/S 759 mmHg 97%
    01:00 +25°C° 1.6 mm 1 m/S 758 mmHg 97%
    02:00 +25°C° 1.6 mm 2 m/S 758 mmHg 97%
    03:00 +25°C° 1.6 mm 2 m/S 758 mmHg 97%
    04:00 +25°C° 0.2 mm 2 m/S 758 mmHg 97%
    05:00 +25°C° 0.2 mm 2 m/S 758 mmHg 97%
    06:00 +25°C° 0.2 mm 2 m/S 758 mmHg 98%
    07:00 +27°C° 0 mm 2 m/S 758 mmHg 89%
    08:00 +29°C° 0 mm 2 m/S 759 mmHg 80%
    09:00 +31°C° 0 mm 2 m/S 759 mmHg 72%
    10:00 +32°C° 0.1 mm 2 m/S 759 mmHg 67%
    11:00 +35°C° 0.1 mm 2 m/S 758 mmHg 62%
    12:00 +35°C° 0.1 mm 1 m/S 757 mmHg 57%
    13:00 +36°C° 0.2 mm 2 m/S 757 mmHg 58%
    14:00 +36°C° 0.2 mm 2 m/S 756 mmHg 58%
    15:00 +35°C° 0.2 mm 2 m/S 756 mmHg 59%
    16:00 +32°C° 0.5 mm 2 m/S 756 mmHg 69%
    17:00 +30°C° 0.5 mm 2 m/S 756 mmHg 78%
    18:00 +28°C° 0.5 mm 3 m/S 756 mmHg 88%
    19:00 +28°C° 1.6 mm 2 m/S 757 mmHg 91%
    20:00 +27°C° 1.6 mm 2 m/S 757 mmHg 93%
    21:00 +27°C° 1.6 mm 2 m/S 758 mmHg 95%
    22:00 +26°C° 2.6 mm 2 m/S 758 mmHg 96%
    23:00 +26°C° 2.6 mm 2 m/S 758 mmHg 97%

    übermorgen, 24 September, Dienstag

    Zeit Temperatur Niederschläge Wind Luftdruck Luftfeuchtigkeit
    00:00 +26°C° 2.6 mm 1 m/S 758 mmHg 97%
    01:00 +26°C° 1.6 mm 2 m/S 758 mmHg 97%
    02:00 +25°C° 1.6 mm 2 m/S 757 mmHg 98%
    03:00 +25°C° 1.6 mm 2 m/S 757 mmHg 98%
    04:00 +25°C° 1 mm 2 m/S 757 mmHg 98%
    05:00 +25°C° 1 mm 2 m/S 758 mmHg 97%
    06:00 +25°C° 1 mm 2 m/S 758 mmHg 97%
    07:00 +27°C° 0 mm 2 m/S 758 mmHg 90%
    08:00 +29°C° 0 mm 2 m/S 758 mmHg 83%
    09:00 +31°C° 0 mm 2 m/S 758 mmHg 75%
    10:00 +34°C° 0 mm 2 m/S 758 mmHg 66%
    11:00 +35°C° 0 mm 1 m/S 757 mmHg 58%
    12:00 +37°C° 0 mm 1 m/S 756 mmHg 49%
    13:00 +37°C° 0.2 mm 2 m/S 756 mmHg 53%
    14:00 +36°C° 0.2 mm 2 m/S 755 mmHg 57%
    15:00 +35°C° 0.2 mm 3 m/S 754 mmHg 61%
    16:00 +34°C° 0.6 mm 3 m/S 755 mmHg 71%
    17:00 +31°C° 0.6 mm 3 m/S 755 mmHg 80%
    18:00 +29°C° 0.6 mm 3 m/S 755 mmHg 89%
    19:00 +28°C° 1 mm 2 m/S 756 mmHg 91%
    20:00 +28°C° 1 mm 2 m/S 756 mmHg 92%
    21:00 +27°C° 1 mm 2 m/S 757 mmHg 93%
    22:00 +27°C° 1.2 mm 1 m/S 757 mmHg 94%
    23:00 +27°C° 1.2 mm 1 m/S 757 mmHg 95%

    25 September, Mittwoch

    Zeit Temperatur Niederschläge Wind Luftdruck Luftfeuchtigkeit
    00:00 +26°C° 1.2 mm 1 m/S 757 mmHg 96%
    01:00 +26°C° 2.8 mm 1 m/S 757 mmHg 97%
    02:00 +26°C° 2.8 mm 2 m/S 757 mmHg 97%
    03:00 +26°C° 2.8 mm 2 m/S 757 mmHg 97%
    04:00 +26°C° 2.3 mm 2 m/S 757 mmHg 98%
    05:00 +26°C° 2.3 mm 2 m/S 757 mmHg 98%
    06:00 +26°C° 2.3 mm 3 m/S 757 mmHg 98%
    07:00 +27°C° 0.1 mm 2 m/S 758 mmHg 93%
    08:00 +28°C° 0.1 mm 2 m/S 758 mmHg 89%
    09:00 +29°C° 0.1 mm 2 m/S 758 mmHg 85%
    10:00 +31°C° 0 mm 2 m/S 757 mmHg 73%
    11:00 +35°C° 0 mm 2 m/S 757 mmHg 61%
    12:00 +36°C° 0 mm 1 m/S 756 mmHg 49%
    13:00 +36°C° 0 mm 1 m/S 755 mmHg 50%
    14:00 +36°C° 0 mm 1 m/S 755 mmHg 50%
    15:00 +36°C° 0 mm 1 m/S 754 mmHg 51%
    16:00 +35°C° 0.2 mm 2 m/S 754 mmHg 61%
    17:00 +33°C° 0.2 mm 3 m/S 755 mmHg 71%
    18:00 +30°C° 0.2 mm 3 m/S 755 mmHg 81%
    19:00 +29°C° 1.1 mm 3 m/S 755 mmHg 85%
    20:00 +28°C° 1.1 mm 2 m/S 756 mmHg 90%
    21:00 +27°C° 1.1 mm 2 m/S 757 mmHg 94%
    22:00 +27°C° 0.6 mm 2 m/S 757 mmHg 94%
    23:00 +27°C° 0.6 mm 1 m/S 756 mmHg 95%

    26 September, Donnerstag

    Zeit Temperatur Niederschläge Wind Luftdruck Luftfeuchtigkeit
    00:00 +26°C° 0.6 mm 1 m/S 756 mmHg 96%
    01:00 +26°C° 0.5 mm 1 m/S 756 mmHg 96%
    02:00 +26°C° 0.5 mm 1 m/S 756 mmHg 97%
    03:00 +26°C° 0.5 mm 1 m/S 756 mmHg 97%
    04:00 +26°C° 0.6 mm 1 m/S 756 mmHg 97%
    05:00 +26°C° 0.6 mm 1 m/S 756 mmHg 97%
    06:00 +25°C° 0.6 mm 1 m/S 756 mmHg 97%
    07:00 +27°C° 0 mm 1 m/S 757 mmHg 91%
    08:00 +29°C° 0 mm 1 m/S 757 mmHg 84%
    09:00 +31°C° 0 mm 1 m/S 757 mmHg 78%
    10:00 +33°C° 0 mm 1 m/S 757 mmHg 69%
    11:00 +34°C° 0 mm 1 m/S 756 mmHg 60%
    12:00 +36°C° 0 mm 1 m/S 756 mmHg 52%
    13:00 +37°C° 0.1 mm 2 m/S 755 mmHg 56%
    14:00 +36°C° 0.1 mm 2 m/S 754 mmHg 59%
    15:00 +35°C° 0.1 mm 3 m/S 753 mmHg 63%
    16:00 +33°C° 0.9 mm 3 m/S 754 mmHg 73%
    17:00 +30°C° 0.9 mm 3 m/S 754 mmHg 83%
    18:00 +28°C° 0.9 mm 3 m/S 755 mmHg 93%
    19:00 +28°C° 0.4 mm 3 m/S 755 mmHg 94%
    20:00 +27°C° 0.4 mm 3 m/S 756 mmHg 94%
    21:00 +27°C° 0.4 mm 2 m/S 757 mmHg 95%
    22:00 +27°C° 0 mm 2 m/S 757 mmHg 96%
    23:00 +27°C° 0 mm 2 m/S 757 mmHg 96%

    27 September, Freitag

    Zeit Temperatur Niederschläge Wind Luftdruck Luftfeuchtigkeit
    00:00 +26°C° 0 mm 2 m/S 757 mmHg 97%
    01:00 +26°C° 1.4 mm 1 m/S 756 mmHg 97%
    02:00 +26°C° 1.4 mm 1 m/S 756 mmHg 97%
    03:00 +26°C° 1.4 mm 1 m/S 755 mmHg 98%
    04:00 +26°C° 0.4 mm 1 m/S 756 mmHg 98%
    05:00 +26°C° 0.4 mm 1 m/S 756 mmHg 98%
    06:00 +26°C° 0.4 mm 1 m/S 756 mmHg 98%
    07:00 +28°C° 0 mm 1 m/S 756 mmHg 92%
    08:00 +29°C° 0 mm 1 m/S 757 mmHg 87%
    09:00 +29°C° 0 mm 0 m/S 757 mmHg 82%
    10:00 +31°C° 0.2 mm 1 m/S 757 mmHg 78%
    11:00 +32°C° 0.2 mm 1 m/S 756 mmHg 75%
    12:00 +33°C° 0.2 mm 1 m/S 756 mmHg 71%
    13:00 +34°C° 0.2 mm 2 m/S 755 mmHg 70%
    14:00 +34°C° 0.2 mm 2 m/S 754 mmHg 69%
    15:00 +35°C° 0.2 mm 3 m/S 754 mmHg 68%
    16:00 +33°C° 0.2 mm 3 m/S 754 mmHg 74%
    17:00 +31°C° 0.2 mm 3 m/S 755 mmHg 79%
    18:00 +30°C° 0.2 mm 3 m/S 755 mmHg 84%
    19:00 +29°C° 2.5 mm 4 m/S 756 mmHg 88%
    20:00 +29°C° 2.5 mm 4 m/S 756 mmHg 91%
    21:00 +28°C° 2.5 mm 4 m/S 757 mmHg 95%
    22:00 +28°C° 1 mm 3 m/S 757 mmHg 95%
    23:00 +27°C° 1 mm 3 m/S 757 mmHg 96%
    Mehr zeigen